IRAS

导读

IRAS即红外天文卫星,由美、英、荷三国合作研制,于1983年1月26日(资料记载为24日)发射升空,进入距地面约900千米的极轨道运行。它是人类首颗实现红外波段全天巡视的天文卫星,搭载液氦制冷望远镜,总计记录35万个红外源,揭示了银心形态,发现新彗星与织女星尘埃环,革新了红外空间天文学,为后续红外天文项目奠定关键基础,1983年11月因制冷剂耗尽终止任务。

Basic Information
目录编号:
13777
目录名称:
IRAS
国际标识:
1983-004A
轨道中心:
EARTH
卫星名称:
IRAS
卫星全名:
--
卫星状态:
在轨 (已飞行15934 天)
发射日期:
1983-01-26 UTC
国别 :
美国 (US)
星等 :
--
This satellite is enrolled in the Space Conjunction Data Service (SCDS) and the current flight risk assessment level is: No High Risk
Orbit Information
数据来源 国际轨道数据 AOE轨道数据
星历时间 2026-09-11T06:18:03+0800
9小时前
查看轨道信息
2026-09-10T04:00:00+0800
1天前
查看轨道信息
半长轴 7268.513km 7268.518km
偏心率 0.0019595 0.0019514
轨道倾角 99.071° 99.071°
近地点辐角 88.166° 91.164°
升交点赤经 74.885° 73.796°
平近点角 272.175° 145.147°
近地点 876.133km 876.197km
远地点 904.619km 904.565km
周期 102.785分钟 102.785分钟
每日圈数 14.009882 14.009868
Detailed Information
使用方式:
暂无
2D Orbit Map
3D Orbit Map
Orbit Altitude Analysis Chart
Orbit Inclination Analysis Chart
Orbit Comprehensive Analysis Chart
View Comprehensive Chart
Miss Distance Evolution Trend with All Objects
Collision Probability Evolution Trend with All Objects